TimeMDT,TemperatureF,Dew PointF,Humidity,Sea Level PressureIn,VisibilityMPH,Wind Direction,Wind SpeedMPH,Gust SpeedMPH,PrecipitationIn,Events,Conditions,WindDirDegrees,DateUTC
12:55 AM,46.0,37.0,71,29.86,10.0,South,8.1,-,N/A,,Overcast,190,2013-04-06 06:55:00
1:55 AM,43.0,37.0,80,29.86,10.0,South,4.6,-,N/A,,Mostly Cloudy,170,2013-04-06 07:55:00
2:55 AM,44.1,37.9,79,29.85,10.0,South,6.9,-,N/A,,Overcast,170,2013-04-06 08:55:00
3:55 AM,45.0,37.0,74,29.83,10.0,SSE,9.2,-,N/A,,Mostly Cloudy,160,2013-04-06 09:55:00
4:55 AM,43.0,36.0,76,29.83,10.0,SSE,5.8,-,N/A,,Mostly Cloudy,160,2013-04-06 10:55:00
5:55 AM,43.0,36.0,76,29.82,10.0,South,5.8,-,N/A,,Overcast,180,2013-04-06 11:55:00
6:55 AM,43.0,37.0,80,29.81,10.0,SSW,5.8,-,N/A,,Overcast,200,2013-04-06 12:55:00
7:55 AM,44.1,37.9,79,29.82,10.0,SSE,9.2,-,N/A,,Overcast,160,2013-04-06 13:55:00
8:55 AM,45.0,39.0,80,29.83,10.0,SSE,10.4,-,N/A,,Overcast,150,2013-04-06 14:55:00
9:55 AM,46.0,39.0,76,29.82,10.0,SSE,12.7,-,N/A,,Overcast,150,2013-04-06 15:55:00
10:55 AM,46.9,39.9,77,29.82,10.0,SSE,15.0,20.7,0.00,,Overcast,160,2013-04-06 16:55:00
11:41 AM,46.4,39.2,76,29.80,10.0,SE,15.0,-,0.00,Rain,Light Rain,140,2013-04-06 17:41:00
11:52 AM,46.4,41.0,81,29.80,10.0,SE,13.8,-,0.00,Rain,Light Rain,140,2013-04-06 17:52:00
11:55 AM,46.0,39.9,79,29.83,10.0,SE,13.8,-,0.00,Rain,Light Rain,140,2013-04-06 17:55:00
12:20 PM,46.4,42.8,87,29.80,10.0,SE,13.8,-,0.01,Rain,Light Rain,140,2013-04-06 18:20:00
12:29 PM,48.2,42.8,82,29.80,10.0,SE,12.7,-,0.01,Rain,Light Rain,140,2013-04-06 18:29:00
12:55 PM,48.0,44.1,86,29.81,10.0,SSE,9.2,-,0.01,,Overcast,160,2013-04-06 18:55:00
1:55 PM,52.0,37.0,57,29.79,10.0,SSW,16.1,20.7,N/A,,Mostly Cloudy,210,2013-04-06 19:55:00
2:55 PM,53.1,30.9,43,29.79,10.0,WSW,16.1,31.1,N/A,,Mostly Cloudy,240,2013-04-06 20:55:00
3:55 PM,53.1,33.1,47,29.80,10.0,SSW,20.7,25.3,N/A,,Partly Cloudy,210,2013-04-06 21:55:00
4:55 PM,52.0,30.0,43,29.81,10.0,West,13.8,26.5,0.00,Rain,Light Rain,260,2013-04-06 22:55:00
5:55 PM,52.0,28.0,40,29.80,10.0,WSW,18.4,32.2,0.00,,Mostly Cloudy,240,2013-04-06 23:55:00
6:55 PM,46.9,34.0,61,29.82,10.0,Variable,5.8,-,N/A,,Overcast,0,2013-04-07 00:55:00
7:55 PM,43.0,35.1,74,29.84,10.0,WSW,11.5,24.2,0.01,Rain,Light Rain,240,2013-04-07 01:55:00
8:55 PM,41.0,32.0,70,29.85,10.0,SW,6.9,23.0,0.00,,Partly Cloudy,220,2013-04-07 02:55:00
9:55 PM,41.0,34.0,76,29.87,10.0,West,5.8,-,N/A,,Mostly Cloudy,280,2013-04-07 03:55:00
10:55 PM,42.1,32.0,67,29.86,10.0,Calm,Calm,-,N/A,,Mostly Cloudy,0,2013-04-07 04:55:00
11:55 PM,36.0,30.9,82,29.86,10.0,Calm,Calm,-,N/A,,Clear,0,2013-04-07 05:55:00